User: anonymous   Login
Location: ASU Dark Sky Observatory
(36.2504°N, 81.4125°W)
Time: 01:19:45
(UTC-05:00)
Language:

ETS-7 - Orbit

View from above orbital plane
View from above orbital plane
View from above satellite
View from above satellite

Ground track
Ground track

The orbit data is extracted from the following two-line orbital elements,

1 25064U 97074B   15028.90433616  .00030117  00000-0  35062-3 0  3672
2 25064 034.9565 220.9367 0004560 031.7858 106.2603 15.60643394956297
Epoch (UTC): 28 January 2015 21:42:14
Eccentricity: 0.0004560
inclination: 34.9565°
perigee height: 383 km
apogee height: 389 km
right ascension of ascending node: 220.9367°
argument of perigee: 31.7858°
revolutions per day: 15.60643394
mean anomaly at epoch: 106.2603°
orbit number at epoch: 95629

The dashed part of the orbit path shows where the satellite is in the earth's shadow,  

DLR